Wiarton, Ontario

4:19 PM EDT on July 28, 2017 (GMT -0400)
Wiarton

Weather History for CYVV - May, 2013

Change the Weather History Date:

Thursday, May 2, 2013

  Actual Average Record
Temperature  
Mean Temperature 62 °F -  
Max Temperature 77 °F 62 °F 80 °F (2001)
Min Temperature 48 °F 41 °F 32 °F (2004)
Degree Days  
Heating Degree Days 2    
Growing Degree Days 12 (Base 50)    
Moisture  
Dew Point 46 °F    
Average Humidity 53    
Maximum Humidity 93    
Minimum Humidity 33    
Precipitation  
Precipitation 0.00 in 0.09 in - ()
Sea Level Pressure  
Sea Level Pressure 30.28 in    
Wind  
Wind Speed 5 mph ()    
Max Wind Speed 14 mph    
Max Gust Speed -    
Visibility 15.0 miles    
Events      
Averages and records for this station are not official NWS values.
T = Trace of Precipitation, MM = Missing Value Source: Averaged Metar Reports

Daily Weather History Graph

Daily Weather History Graph

Search for Another Location

Airport or City:

Trip Planner

Search our weather history database for the weather conditions in past years. The results will help you decide how hot, cold, wet, or windy it might be!

Date:

Astronomy

May. 02, 2013 Rise Set
Actual Time 6:12 AM EDT 8:30 PM EDT
Civil Twilight 5:40 AM EDT 9:03 PM EDT
Nautical Twilight 5:00 AM EDT 9:43 PM EDT
Astronomical Twilight 4:15 AM EDT 10:28 PM EDT
Moon 2:17 AM EDT (5/2) 1:01 PM EDT (5/2)
Length of Visible Light 15h 23m
Length of Day
14h 18m
Waning Gibbous, 48% of the Moon is Illuminated
May 2
Waning Gibbous
May 9
New
May 18
First Quarter
May 25
Full
May 31
Last Quarter

Hourly Weather History & Observations

Time (EDT) Temp. Dew Point Humidity Pressure Visibility Wind Dir Wind Speed Gust Speed Precip Events Conditions
12:00 AM 60.8 °F 53.6 °F 77% 30.28 in 15.0 mi SE 5.8 mph - N/A   Clear
1:00 AM 62.6 °F 51.8 °F 68% 30.29 in 15.0 mi SE 6.9 mph - N/A   Clear
2:00 AM 60 °F 51 °F 65% 30.28 in 15 mi SSE 5.8 mph - -  
2:00 AM 60.8 °F 51.8 °F 72% 30.28 in 15.0 mi SSE 5.8 mph - N/A   Clear
3:00 AM 53.6 °F 50.0 °F 88% 30.27 in 15.0 mi East 3.5 mph - N/A   Clear
4:00 AM 55.4 °F 48.2 °F 77% 30.27 in 15.0 mi ESE 5.8 mph - N/A   Clear
5:00 AM 51.8 °F 46.4 °F 82% 30.28 in 15.0 mi ESE 3.5 mph - N/A   Partly Cloudy
6:00 AM 48.2 °F 46.4 °F 93% 30.29 in 15.0 mi East 3.5 mph - N/A   Partly Cloudy
7:00 AM 50.0 °F 46.4 °F 87% 30.30 in 15.0 mi East 5.8 mph - N/A   Partly Cloudy
8:00 AM 62 °F 43 °F 39% 30.32 in 15 mi South 9.2 mph - -   Clear
8:00 AM 62.6 °F 42.8 °F 48% 30.32 in 15.0 mi South 9.2 mph - N/A   Partly Cloudy
9:00 AM 64.4 °F 41.0 °F 42% 30.32 in 15.0 mi South 11.5 mph - N/A   Partly Cloudy
10:00 AM 69.8 °F 42.8 °F 38% 30.33 in 15.0 mi SW 11.5 mph - N/A   Partly Cloudy
11:00 AM 71.6 °F 44.6 °F 38% 30.32 in 15.0 mi Calm Calm - N/A   Partly Cloudy
12:00 PM 75.2 °F 44.6 °F 34% 30.32 in 15.0 mi South 6.9 mph - N/A   Partly Cloudy
1:00 PM 68.0 °F 44.6 °F 43% 30.31 in 15.0 mi NNW 11.5 mph - N/A   Partly Cloudy
2:00 PM 70 °F 47 °F 33% 30.30 in 15 mi North 5.8 mph - -   Scattered Clouds
2:00 PM 69.8 °F 46.4 °F 43% 30.30 in 15.0 mi North 5.8 mph - N/A   Partly Cloudy
3:00 PM 75.2 °F 46.4 °F 36% 30.28 in 15.0 mi NE 13.8 mph - N/A   Partly Cloudy
4:00 PM 75.2 °F 46.4 °F 36% 30.26 in 15.0 mi ENE 11.5 mph - N/A   Scattered Clouds
5:00 PM 77.0 °F 46.4 °F 34% 30.24 in 15.0 mi ENE 11.5 mph - N/A   Mostly Cloudy
6:00 PM 68.0 °F 44.6 °F 43% 30.22 in 15.0 mi Calm Calm - N/A   Mostly Cloudy
7:00 PM 69.8 °F 44.6 °F 40% 30.22 in 15.0 mi WSW 4.6 mph - N/A   Mostly Cloudy
8:00 PM 65 °F 43 °F 33% 30.22 in 15 mi Calm Calm - -   Clear
8:00 PM 66.2 °F 42.8 °F 43% 30.22 in 15.0 mi Calm Calm - N/A   Mostly Cloudy
9:00 PM 60.8 °F 44.6 °F 55% 30.23 in 15.0 mi Calm Calm - N/A   Mostly Cloudy
10:00 PM 62.6 °F 37.4 °F 39% 30.23 in 15.0 mi ESE 5.8 mph - N/A   Partly Cloudy
11:00 PM 59.0 °F 44.6 °F 59% 30.23 in 15.0 mi East 5.8 mph - N/A   Partly Cloudy